Location: Ciula Mare
(45.6000°N, 22.8167°E)
Time: 06:38:22
(UTC+00:00)

Cosmos 1814 Rocket - Visible Passes

Search period start: 24 September 2023 00:00
Search period end: 04 October 2023 00:00
Orbit: 743 x 786 km, 74.1° (Epoch: 23 September)

Date Brightness Start Highest point End Pass type
(mag) Time Alt. Az. Time Alt. Az. Time Alt. Az.
24 Sep 6.9 21:13:22 10° N 21:13:44 12° N 21:13:44 12° N visible
25 Sep 6.8 20:35:52 10° N 20:36:08 11° N 20:36:08 11° N visible
27 Sep 6.9 21:00:49 10° N 21:01:09 12° N 21:01:09 12° N visible
28 Sep 6.7 20:23:06 10° N 20:23:35 12° N 20:23:35 12° N visible
29 Sep 6.6 19:45:42 10° NNE 19:46:03 11° NNE 19:46:03 11° NNE visible
30 Sep 6.9 20:48:23 10° NNW 20:48:42 12° NNW 20:48:42 12° NNW visible
01 Oct 6.6 20:10:31 10° N 20:11:11 13° N 20:11:11 13° N visible
02 Oct 6.4 19:32:51 10° N 19:33:41 13° N 19:33:41 13° N visible
03 Oct 6.4 18:55:32 10° NNE 18:56:13 12° NNE 18:56:13 12° NNE visible
03 Oct 6.9 20:36:02 10° NNW 20:36:23 12° NNW 20:36:23 12° NNW visible
